Date String (YYYY-MM-DD hh:mm:ss) UTC,Instrument flags,absolute air pressure of the measurement (hPa),sample flow rate (lpm),inlet stack bypass flow (lpm),air temperature of the measurement (°C),ambient temperature measured by the external sensor (°C),aerosol sample conditioner tube jacket temperature (°C),OPC LED temperature (°C),internal box temperature (°C),relative humidity of the measurement (%),span deviation,mass concentration of particles derived from Lorenz-Mie calculation of OPC scattering (μg/m³),mass concentration of particles derived from Lorenz-Mie calculation of OPC scattering (μg/m³),mass concentration of particles derived from Lorenz-Mie calculation of OPC scattering (μg/m³)
DateTimeUTC,F1_M11,P_M11,Q1_M11,Q2_M11,T1_M11,T2_M11,T3_M11,T4_M11,T5_M11,U1_M11,ZSPAN_M11,X2_M11,X0_M11,X1_M11
2023-12-11 18:00:00,SystemResetWarning,0831.0,5.00,000.00,023.0,022.4,000.0,031.1,024.5,15.0,0000.0,0001.86,0003.91,0001.51
2023-12-11 18:01:00,SystemResetWarning,0831.0,4.99,000.00,023.0,022.5,000.0,031.1,024.5,15.2,0000.0,0001.96,0004.19,0001.54
2023-12-11 18:02:00,SystemResetWarning,0830.9,5.00,000.00,023.1,022.5,000.0,031.1,024.5,15.3,0000.0,0002.01,0004.85,0001.56
2023-12-11 18:03:00,SystemResetWarning,0830.9,5.00,000.00,023.1,022.5,000.0,031.1,024.6,15.1,0000.0,0002.05,0004.93,0001.59
2023-12-11 18:04:00,SystemResetWarning,0830.9,5.00,000.00,023.1,022.5,000.0,031.2,024.6,15.2,0000.0,0002.06,0004.86,0001.62
2023-12-11 18:05:00,SystemResetWarning,0830.9,5.01,000.00,023.1,022.5,000.0,031.2,024.6,15.2,0000.0,0002.04,0004.72,0001.64
2023-12-11 18:06:00,SystemResetWarning,0830.9,5.00,000.00,023.1,022.5,000.0,031.2,024.6,14.9,0000.0,0002.04,0004.70,0001.65
2023-12-11 18:07:00,SystemResetWarning,0830.9,5.00,000.00,023.1,022.5,000.0,031.2,024.6,14.9,0000.0,0002.11,0004.66,0001.68
2023-12-11 18:08:00,SystemResetWarning,0830.9,5.00,000.00,023.2,022.6,000.0,031.2,024.6,15.1,0000.0,0002.12,0004.60,0001.70
2023-12-11 18:09:00,SystemResetWarning,0830.9,5.00,000.00,023.2,022.6,000.0,031.2,024.6,14.9,0000.0,0002.14,0004.71,0001.71
2023-12-11 18:10:00,SystemResetWarning,0830.9,5.00,000.00,023.2,022.6,000.0,031.3,024.6,15.4,0000.0,0002.18,0005.35,0001.74
2023-12-11 18:11:00,SystemResetWarning,0830.9,5.00,000.00,023.2,022.6,000.0,031.3,024.6,15.5,0000.0,0002.23,0005.15,0001.81
2023-12-11 18:12:00,SystemResetWarning,0830.9,5.00,000.00,023.2,022.6,000.0,031.3,024.6,15.7,0000.0,0002.28,0005.95,0001.87
2023-12-11 18:13:00,SystemResetWarning,0830.8,5.00,000.00,023.2,022.6,000.0,031.3,024.6,15.7,0000.0,0002.35,0005.67,0001.93
2023-12-11 18:14:00,SystemResetWarning,0830.9,5.00,000.00,023.2,022.6,000.0,031.3,024.6,15.9,0000.0,0002.47,0006.02,0001.98
2023-12-11 18:15:00,SystemResetWarning,0830.8,5.00,000.00,023.2,022.5,000.0,031.3,024.6,16.1,0000.0,0002.53,0006.54,0002.02
2023-12-11 18:16:00,SystemResetWarning,0830.8,5.00,000.00,023.2,022.6,000.0,031.3,024.6,16.2,0000.0,0002.62,0006.77,0002.06
2023-12-11 18:17:00,SystemResetWarning,0830.8,5.00,000.00,023.2,022.6,000.0,031.4,024.7,16.0,0000.0,0002.67,0006.87,0002.10
2023-12-11 18:18:00,SystemResetWarning,0830.9,5.00,000.00,023.3,022.6,000.0,031.4,024.7,16.2,0000.0,0002.68,0006.82,0002.13
2023-12-11 18:19:00,SystemResetWarning,0830.9,5.00,000.00,023.3,022.6,000.0,031.4,024.7,16.0,0000.0,0002.76,0007.16,0002.16
2023-12-11 18:20:00,SystemResetWarning,0830.8,5.00,000.00,023.3,022.6,000.0,031.4,024.7,15.5,0000.0,0002.86,0007.71,0002.19
2023-12-11 18:21:00,SystemResetWarning,0830.7,5.00,000.00,023.3,022.6,000.0,031.4,024.7,15.4,0000.0,0002.89,0008.13,0002.21
2023-12-11 18:22:00,SystemResetWarning,0830.7,5.00,000.00,023.3,022.6,000.0,031.4,024.6,15.2,0000.0,0002.92,0008.13,0002.21
2023-12-11 18:23:00,SystemResetWarning,0830.7,4.99,000.00,023.3,022.6,000.0,031.4,024.6,15.2,0000.0,0002.92,0007.83,0002.20
2023-12-11 18:24:00,SystemResetWarning,0830.7,4.99,000.00,023.3,022.6,000.0,031.4,024.6,15.4,0000.0,0002.90,0007.65,0002.19
2023-12-11 18:25:00,SystemResetWarning,0830.7,5.01,000.00,023.3,022.6,000.0,031.5,024.7,15.8,0000.0,0002.85,0007.88,0002.18
2023-12-11 18:26:00,SystemResetWarning,0830.7,5.01,000.00,023.3,022.6,000.0,031.5,024.7,16.0,0000.0,0002.84,0007.74,0002.17
2023-12-11 18:27:00,SystemResetWarning,0830.7,5.00,000.00,023.3,022.6,000.0,031.5,024.7,15.8,0000.0,0002.87,0008.12,0002.15
2023-12-11 18:28:00,SystemResetWarning,0830.8,5.00,000.00,023.3,022.6,000.0,031.5,024.7,15.8,0000.0,0002.88,0008.19,0002.15
2023-12-11 18:29:00,SystemResetWarning,0830.9,4.99,000.00,023.3,022.7,000.0,031.5,024.7,15.6,0000.0,0002.95,0008.42,0002.14
2023-12-11 18:30:00,SystemResetWarning,0830.8,4.99,000.00,023.4,022.7,000.0,031.5,024.8,15.7,0000.0,0002.93,0008.65,0002.15
2023-12-11 18:31:00,SystemResetWarning,0830.9,5.01,000.00,023.4,022.7,000.0,031.5,024.8,15.9,0000.0,0002.98,0008.85,0002.17
2023-12-11 18:32:00,SystemResetWarning,0830.8,5.01,000.00,023.4,022.7,000.0,031.5,024.8,15.7,0000.0,0003.04,0008.87,0002.19
2023-12-11 18:33:00,SystemResetWarning,0830.9,5.00,000.00,023.4,022.8,000.0,031.5,024.8,15.8,0000.0,0003.03,0008.43,0002.20
2023-12-11 18:34:00,SystemResetWarning,0830.8,5.00,000.00,023.4,022.8,000.0,031.6,024.9,15.8,0000.0,0003.05,0008.45,0002.21
2023-12-11 18:35:00,SystemResetWarning,0830.8,5.00,000.00,023.4,022.8,000.0,031.6,024.9,15.5,0000.0,0003.10,0008.47,0002.24
2023-12-11 18:36:00,SystemResetWarning,0830.8,5.00,000.00,023.5,022.8,000.0,031.6,024.9,15.6,0000.0,0003.12,0008.20,0002.25
2023-12-11 18:37:00,SystemResetWarning,0830.7,5.00,000.00,023.5,022.9,000.0,031.6,024.9,15.9,0000.0,0003.13,0008.21,0002.29
2023-12-11 18:38:00,SystemResetWarning,0830.7,5.00,000.00,023.5,022.9,000.0,031.6,024.9,16.0,0000.0,0003.13,0008.26,0002.32
2023-12-11 18:39:00,SystemResetWarning,0830.7,5.00,000.00,023.5,022.9,000.0,031.6,024.9,15.8,0000.0,0003.14,0008.26,0002.33
2023-12-11 18:40:00,SystemResetWarning,0830.7,5.00,000.00,023.5,022.9,000.0,031.7,024.9,15.7,0000.0,0003.14,0008.10,0002.35
2023-12-11 18:41:00,SystemResetWarning,0830.7,5.00,000.00,023.5,022.9,000.0,031.7,025.0,15.5,0000.0,0003.18,0007.92,0002.37
2023-12-11 18:42:00,SystemResetWarning,0830.7,5.00,000.00,023.6,023.0,000.0,031.7,025.0,15.7,0000.0,0003.16,0007.36,0002.38
2023-12-11 18:43:00,SystemResetWarning,0830.7,5.00,000.00,023.6,023.0,000.0,031.7,025.0,15.6,0000.0,0003.16,0006.90,0002.39
2023-12-11 18:44:00,SystemResetWarning,0830.7,5.00,000.00,023.6,023.0,000.0,031.7,025.0,15.5,0000.0,0003.18,0006.50,0002.41
2023-12-11 18:45:00,SystemResetWarning,0830.7,5.00,000.00,023.6,023.0,000.0,031.7,025.0,15.5,0000.0,0003.17,0006.41,0002.42
2023-12-11 18:46:00,SystemResetWarning,0830.7,5.00,000.00,023.6,023.0,000.0,031.7,025.1,15.1,0000.0,0003.17,0006.53,0002.43
2023-12-11 18:47:00,SystemResetWarning,0830.7,5.00,000.00,023.7,023.1,000.0,031.8,025.1,15.0,0000.0,0003.18,0006.58,0002.44
2023-12-11 18:48:00,SystemResetWarning,0830.6,5.00,000.00,023.7,023.1,000.0,031.8,025.1,15.0,0000.0,0003.17,0006.54,0002.44
2023-12-11 18:49:00,SystemResetWarning,0830.6,5.00,000.00,023.7,023.1,000.0,031.8,025.1,15.2,0000.0,0003.21,0006.03,0002.46
2023-12-11 18:50:00,SystemResetWarning,0830.5,4.99,000.00,023.7,023.2,000.0,031.8,025.1,15.1,0000.0,0003.24,0005.90,0002.48
2023-12-11 18:51:00,SystemResetWarning,0830.5,4.99,000.00,023.8,023.2,000.0,031.8,025.2,15.0,0000.0,0003.24,0006.01,0002.51
2023-12-11 18:52:00,SystemResetWarning,0830.6,5.02,000.00,023.8,023.2,000.0,031.9,025.2,15.0,0000.0,0003.22,0006.35,0002.54
2023-12-11 18:53:00,SystemResetWarning,0830.5,5.00,000.00,023.8,023.2,000.0,031.9,025.2,15.1,0000.0,0003.23,0007.22,0002.56
2023-12-11 18:54:00,SystemResetWarning,0830.6,4.98,000.00,023.8,023.2,000.0,031.9,025.3,15.1,0000.0,0003.21,0007.45,0002.57
2023-12-11 18:55:00,SystemResetWarning,0830.6,5.01,000.00,023.8,023.3,000.0,031.9,025.3,15.1,0000.0,0003.20,0007.44,0002.58
2023-12-11 18:56:00,SystemResetWarning,0830.6,5.01,000.00,023.9,023.3,000.0,031.9,025.3,15.1,0000.0,0003.21,0007.46,0002.60
2023-12-11 18:57:00,SystemResetWarning,0830.6,5.00,000.00,023.9,023.3,000.0,032.0,025.3,15.0,0000.0,0003.21,0007.42,0002.63
2023-12-11 18:58:00,SystemResetWarning,0830.6,4.99,000.00,023.9,023.4,000.0,032.0,025.3,15.0,0000.0,0003.20,0007.43,0002.67
2023-12-11 18:59:00,SystemResetWarning,0830.6,4.99,000.00,023.9,023.4,000.0,032.0,025.4,15.3,0000.0,0003.23,0007.59,0002.70
